Location: Carrer del Canonge
(41.4901°N, 2.2931°E)
Time: 14:26:21
(UTC+00:00)

Resurs 01 Rocket - Pass Details

Date: 18 September 2020
Orbit: 633 x 645 km, 98.0° (Epoch: 29 October)

Event Time Altitude Azimuth Distance (km) Brightness Sun altitude
Exits shadow 19:19:14 17° 59° (ENE) 1,625 3.3 -16.5°
Drops below altitude 10° 19:21:47 10° 24° (NNE) 2,050 4.2 -16.9°
Sets 19:24:38 0° 5° (N) 2,964 5.2 -17.4°
